Location: Chapel Hill
(35.9134°N, 79.0560°W)
Time: 20:37:50
(UTC-05:00)

N. Korean satellite - Visible Passes

Search period start: 05 December 2021 00:00
Search period end: 15 December 2021 00:00
Orbit: 446 x 495 km, 97.3° (Epoch: 05 December)

Date Brightness Start Highest point End Pass type
(mag) Time Alt. Az. Time Alt. Az. Time Alt. Az.
05 Dec 6.3 05:41:13 10° N 05:44:32 59° WNW 05:47:51 10° SSW visible
05 Dec 9.9 17:47:02 10° SW 17:48:52 14° W 17:50:42 10° WNW visible
06 Dec 7.4 05:12:45 10° NNE 05:16:02 47° E 05:19:17 10° S visible
07 Dec 9.2 04:44:58 10° NE 04:47:24 18° E 04:49:50 10° SE visible
07 Dec 7.8 06:18:06 10° NNW 06:20:27 18° WNW 06:22:49 10° WSW visible
08 Dec 6.6 05:48:50 10° N 05:52:04 44° WNW 05:55:18 10° SSW visible
08 Dec 10.3 17:55:46 10° WSW 17:56:29 10° W 17:57:12 10° W visible
09 Dec 6.8 05:20:12 10° NNE 05:23:34 63° E 05:26:55 10° S visible
10 Dec 8.8 04:52:10 10° NE 04:54:57 23° E 04:57:44 10° SSE visible
10 Dec 8.1 06:26:14 11° NW 06:27:55 14° WNW 06:29:50 10° WSW visible
11 Dec 7.0 05:58:04 23° NNW 05:59:32 34° WNW 06:02:38 10° SW visible
12 Dec 6.3 05:29:43 35° NNE 05:31:02 84° ESE 05:34:26 10° S visible
12 Dec 9.5 17:32:40 10° SW 17:35:17 20° W 17:37:52 10° NW visible
13 Dec 8.3 05:01:14 24° ENE 05:02:25 30° E 05:05:27 10° SSE visible
13 Dec 8.3 06:35:19 12° WNW 06:35:19 12° WNW 06:36:32 10° W visible
14 Dec 9.8 04:32:41 11° ENE 04:33:42 12° E 04:35:12 10° ESE visible
14 Dec 7.3 06:06:46 27° WNW 06:06:54 27° WNW 06:09:50 10° SW visible
